User: anonymous   Login
Location: ?ern� Novina
(50.6762°N, 14.8696°E)
Time: 01:56:15
(UTC+00:00)
Language:

SME Rocket - Orbit

View from above orbital plane
View from above orbital plane
View from above satellite
View from above satellite

Ground track
Ground track

The orbit data is extracted from the following two-line orbital elements,

1 12889U 81100C   21125.45482674  .00000015  00000-0  21768-4 0  9993
2 12889  99.8649 323.4844 1316830  73.7248 349.7427 12.18064782753668
Epoch (UTC): 05 May 2021 10:54:57
Eccentricity: 0.1316830
inclination: 99.8649°
perigee height: 550 km
apogee height: 2651 km
right ascension of ascending node: 323.4844°
argument of perigee: 73.7248°
revolutions per day: 12.18064782
mean anomaly at epoch: 349.7427°
orbit number at epoch: 75366

The dashed part of the orbit path shows where the satellite is in the earth's shadow,  

DLR